Vorticity
3 5 5 8 9 9 11 9 6 9 9 10 7 6 5 2 2 4 6 17 52 21 7 4 6 16 10 5 11 10 9 11 19 28 34 35 33 30 28 28 29 24 19 14
3 4 5 8 9 10 10 9 7 11 10 7 4 8 4 2 2 4 10 32 35 6 3 7 13 3 10 11 11 14 13 19 19 21 20 18 18 17 17 22 26 29 29 30
4 3 5 6 7 10 10 8 10 12 7 6 3 8 2 2 3 8 17 39 17 2 3 13 5 12 9 5 -2 6 2 12 7 6 6 8 13 16 15 13 13 15 18 22
4 3 5 6 8 9 11 10 13 5 9 6 6 3 4 4 5 11 23 39 10 1 8 8 13 10 9 2 7 15 7 9 12 8 6 7 8 7 8 14 15 12 9 11
4 4 5 7 6 7 10 11 7 7 7 6 6 4 2 4 4 17 27 33 6 3 9 10 15 6 4 6 10 -1 15 7 5 6 6 5 8 8 5 6 7 8 15 14
5 5 5 6 6 9 8 11 6 5 7 8 7 5 6 1 1 28 38 27 5 9 6 12 6 7 5 7 10 7 10 8 6 5 4 7 8 8 10 10 9 8 8 12
6 4 5 7 8 8 7 9 7 1 4 5 7 4 6 4 -0 24 42 32 5 10 10 13 5 7 7 4 11 12 10 5 7 7 10 9 10 13 14 20 23 20 14 12
5 4 6 6 6 8 6 9 6 1 4 4 6 2 6 3 3 25 46 20 4 7 7 12 6 6 6 7 8 7 9 7 5 11 10 9 11 10 20 32 35 35 37 31
5 6 6 7 6 8 5 10 6 0 5 2 3 5 7 3 8 27 46 15 6 6 9 9 6 6 7 8 8 10 6 5 10 11 9 6 12 1 15 25 25 12 22 27
5 6 6 6 7 8 7 9 4 1 5 3 4 5 6 3 4 36 47 5 8 5 10 7 5 6 6 8 7 10 6 6 13 11 8 12 7 6 17 14 39 13 24 22
6 6 6 8 7 8 5 9 5 -1 6 5 2 6 8 3 3 41 41 2 7 6 14 4 5 5 7 9 8 7 6 10 13 10 7 10 12 12 14 13 40 29 32 23
9 7 8 7 7 8 5 9 5 1 6 4 4 7 8 3 7 37 53 5 8 7 17 3 5 6 8 8 10 6 4 13 12 5 0 13 12 15 14 9 41 33 23 21
8 7 8 8 7 7 6 9 4 1 8 3 4 5 9 3 2 36 55 6 9 5 18 3 4 6 8 8 11 5 5 15 12 5 6 -1 3 12 10 16 25 31 22 20
10 10 9 8 8 10 7 9 5 2 8 2 3 4 10 3 1 33 65 1 10 4 17 3 5 6 7 9 10 5 9 14 13 3 2 4 7 8 15 10 14 27 28 26
11 10 9 7 9 9 8 9 5 5 7 0 2 4 9 4 3 21 65 -3 8 5 15 5 5 7 6 10 9 4 13 12 12 6 3 5 4 3 3 14 13 18 6 40
6 10 10 8 9 9 8 10 4 6 5 4 2 3 7 6 3 13 54 8 6 6 13 8 5 7 5 11 8 4 13 11 12 8 8 1 3 5 8 5 10 17 17 4
1 6 10 8 10 10 8 10 5 4 7 1 1 3 4 7 5 -1 55 39 4 9 12 11 5 7 6 12 8 5 13 11 10 8 9 2 4 3 7 9 8 10 19 11
2 3 9 10 9 8 11 11 9 1 9 5 -0 2 4 4 3 4 27 54 2 9 8 15 5 6 7 12 7 5 13 11 9 8 8 6 6 5 6 9 7 6 9 15
6 3 5 7 11 9 8 12 10 4 8 6 4 7 4 2 8 10 6 66 21 8 6 19 5 5 8 13 6 5 13 12 9 8 7 7 6 6 7 10 9 9 6 11
5 5 4 5 8 10 10 11 10 7 6 7 6 8 3 2 6 10 4 20 58 5 7 22 4 6 7 14 6 4 12 12 9 9 9 8 8 10 10 11 10 9 10 10
3 6 2 4 5 9 11 9 9 10 6 6 8 8 2 3 2 9 6 15 63 12 7 20 2 6 7 14 7 4 11 13 9 9 8 9 11 9 8 7 8 11 11 6
1 7 3 5 4 8 13 9 13 9 8 6 7 7 3 4 2 7 9 0 52 39 7 13 7 8 7 11 9 4 9 13 10 9 8 9 11 8 6 6 8 11 15 11
1 5 5 4 5 6 10 8 12 10 9 8 6 10 4 6 2 6 13 1 3 63 15 7 17 6 6 8 12 4 7 13 11 8 9 8 8 11 12 11 9 8 10 15
4 2 8 4 5 4 9 10 14 11 7 8 6 11 8 5 2 5 11 7 2 14 62 8 15 4 8 7 13 4 6 10 13 8 8 9 9 8 12 10 9 11 9 9
6 2 7 4 5 2 6 10 14 11 7 8 7 9 10 5 2 6 8 7 9 4 32 46 5 17 5 7 10 8 4 7 12 11 9 9 10 7 8 10 9 11 13 13
3 0 7 7 5 2 4 8 13 12 9 8 9 7 9 5 3 4 5 11 7 6 4 50 28 7 8 7 7 12 4 5 7 13 10 10 10 8 8 8 7 6 7 8
Height
5882 5878 5873 5868 5862 5857 5852 5846 5839 5834 5828 5822 5815 5808 5799 5791 5780 5767 5751 5733 5715 5703 5696 5688 5682 5676 5669 5663 5657 5651 5645 5637 5629 5620 5613 5606 5599 5591 5584 5577 5570 5564 5559 5554
5881 5876 5872 5866 5861 5856 5849 5843 5837 5831 5825 5820 5812 5804 5795 5784 5772 5755 5739 5720 5710 5703 5696 5690 5683 5676 5668 5662 5656 5648 5640 5632 5623 5615 5606 5598 5591 5582 5575 5567 5558 5551 5545 5539
5878 5875 5869 5865 5859 5852 5846 5840 5834 5829 5822 5815 5808 5801 5790 5777 5762 5745 5727 5715 5708 5702 5696 5689 5682 5675 5668 5661 5654 5645 5637 5629 5620 5612 5604 5596 5587 5576 5568 5559 5551 5543 5536 5530
5877 5872 5868 5863 5856 5850 5844 5837 5831 5825 5819 5811 5802 5794 5783 5771 5755 5738 5725 5714 5708 5702 5695 5687 5680 5673 5667 5659 5649 5642 5634 5626 5618 5610 5601 5592 5584 5576 5566 5557 5546 5537 5529 5522
5876 5871 5866 5860 5855 5849 5844 5837 5830 5825 5817 5809 5799 5789 5776 5765 5752 5739 5721 5711 5706 5699 5692 5685 5678 5672 5664 5657 5649 5641 5633 5624 5616 5606 5596 5588 5580 5570 5560 5550 5540 5530 5520 5513
5873 5869 5865 5859 5853 5847 5842 5836 5830 5823 5814 5806 5795 5783 5771 5758 5746 5732 5715 5707 5703 5697 5690 5683 5676 5670 5663 5655 5648 5640 5631 5622 5613 5603 5594 5584 5574 5563 5553 5541 5530 5520 5511 5503
5872 5867 5863 5857 5851 5845 5838 5832 5826 5819 5809 5800 5790 5780 5770 5755 5739 5724 5711 5704 5700 5695 5689 5682 5677 5670 5663 5655 5647 5639 5630 5621 5612 5602 5592 5581 5569 5556 5542 5527 5514 5504 5496 5490
5870 5867 5861 5855 5850 5844 5838 5831 5823 5815 5808 5800 5790 5780 5768 5751 5734 5716 5705 5701 5698 5693 5688 5681 5676 5669 5662 5654 5646 5638 5630 5621 5611 5600 5589 5577 5564 5550 5532 5514 5498 5486 5478 5472
5868 5864 5859 5854 5848 5843 5836 5829 5823 5816 5808 5798 5787 5776 5763 5749 5732 5716 5704 5701 5697 5693 5686 5681 5674 5668 5660 5653 5646 5638 5628 5618 5609 5598 5587 5575 5561 5545 5527 5507 5491 5479 5468 5460
5866 5861 5856 5851 5846 5840 5834 5828 5820 5812 5802 5794 5786 5772 5760 5748 5735 5717 5705 5701 5696 5692 5685 5679 5673 5667 5660 5652 5645 5636 5627 5618 5607 5596 5586 5573 5558 5541 5522 5504 5486 5474 5462 5453
5863 5859 5855 5849 5844 5837 5832 5825 5818 5811 5802 5791 5781 5772 5760 5746 5733 5718 5706 5702 5697 5691 5685 5679 5674 5667 5660 5652 5645 5636 5628 5618 5607 5597 5586 5573 5557 5540 5522 5502 5483 5469 5456 5448
5861 5856 5852 5847 5841 5836 5830 5823 5817 5809 5802 5792 5782 5772 5758 5746 5735 5719 5708 5702 5695 5691 5685 5679 5674 5667 5660 5653 5646 5637 5628 5618 5608 5598 5587 5573 5559 5542 5524 5504 5485 5469 5457 5448
5859 5854 5850 5845 5841 5834 5828 5822 5816 5809 5801 5793 5781 5771 5759 5746 5734 5718 5707 5702 5697 5692 5685 5679 5674 5667 5661 5654 5646 5638 5629 5619 5609 5600 5589 5576 5562 5546 5527 5509 5491 5474 5463 5453
5856 5851 5847 5842 5837 5832 5827 5821 5814 5807 5800 5792 5782 5771 5758 5746 5734 5719 5706 5701 5696 5690 5685 5680 5674 5668 5661 5655 5647 5639 5630 5620 5611 5602 5592 5580 5566 5549 5532 5515 5499 5484 5471 5461
5855 5850 5845 5840 5835 5830 5825 5819 5813 5806 5798 5791 5782 5772 5760 5748 5736 5722 5707 5701 5696 5691 5685 5680 5676 5669 5662 5655 5648 5640 5631 5621 5613 5604 5594 5583 5569 5553 5538 5523 5508 5493 5481 5470
5853 5849 5843 5838 5834 5829 5823 5818 5812 5805 5798 5791 5781 5772 5760 5748 5737 5724 5709 5702 5698 5692 5686 5680 5676 5670 5664 5657 5650 5642 5633 5623 5615 5606 5597 5587 5573 5560 5545 5531 5518 5503 5491 5481
5851 5847 5842 5837 5832 5827 5823 5816 5811 5804 5797 5790 5781 5772 5760 5748 5737 5724 5711 5701 5697 5691 5686 5682 5677 5671 5665 5659 5652 5644 5635 5625 5617 5609 5601 5591 5578 5565 5552 5539 5528 5515 5502 5491
5849 5845 5840 5835 5830 5826 5820 5815 5810 5803 5796 5789 5781 5772 5762 5751 5739 5727 5713 5701 5696 5691 5686 5681 5677 5672 5666 5659 5652 5645 5637 5628 5620 5612 5604 5595 5583 5571 5560 5548 5537 5524 5512 5501
5847 5843 5839 5834 5828 5824 5819 5814 5808 5802 5796 5788 5781 5772 5763 5752 5742 5731 5718 5704 5696 5692 5688 5682 5679 5673 5668 5661 5654 5647 5639 5631 5623 5616 5608 5598 5588 5577 5567 5556 5544 5533 5520 5510
5844 5841 5837 5832 5826 5821 5817 5812 5807 5801 5796 5788 5781 5773 5763 5753 5743 5731 5719 5707 5695 5692 5688 5683 5679 5674 5669 5662 5656 5650 5642 5634 5627 5620 5611 5601 5592 5582 5572 5562 5551 5540 5529 5518
5840 5838 5834 5830 5825 5820 5815 5810 5805 5801 5797 5788 5781 5773 5764 5755 5744 5732 5720 5708 5695 5691 5687 5683 5680 5675 5670 5665 5659 5653 5645 5637 5631 5622 5613 5605 5596 5587 5578 5568 5558 5547 5537 5527
5837 5835 5831 5827 5823 5819 5813 5809 5804 5799 5793 5787 5780 5773 5766 5757 5747 5736 5725 5713 5701 5693 5689 5685 5681 5676 5671 5666 5661 5655 5648 5641 5634 5626 5618 5610 5602 5593 5584 5574 5565 5555 5545 5536
5834 5831 5829 5825 5821 5816 5811 5807 5802 5797 5792 5786 5781 5774 5767 5759 5750 5740 5730 5719 5706 5695 5690 5686 5682 5678 5673 5668 5663 5658 5651 5643 5636 5630 5623 5615 5608 5600 5591 5582 5573 5564 5554 5545
5828 5827 5825 5822 5819 5814 5810 5805 5801 5796 5791 5785 5780 5774 5768 5761 5753 5743 5733 5723 5711 5701 5691 5687 5684 5680 5675 5670 5665 5661 5655 5648 5640 5633 5627 5621 5614 5606 5598 5590 5581 5573 5564 5554
5823 5822 5820 5818 5816 5812 5808 5804 5799 5794 5789 5784 5779 5774 5768 5762 5754 5746 5737 5726 5717 5706 5696 5687 5684 5681 5677 5672 5668 5663 5658 5652 5645 5638 5632 5626 5621 5614 5606 5598 5590 5581 5573 5564
5815 5818 5816 5815 5812 5809 5806 5802 5797 5792 5788 5783 5779 5774 5768 5762 5755 5748 5739 5730 5722 5711 5701 5690 5685 5682 5678 5674 5669 5665 5661 5655 5649 5642 5636 5631 5626 5620 5613 5605 5597 5590 5581 5573